Content
SEND FEEDBACK

Daily
Averages
Monthly
Summary
United States of America

AGAT, GUAM


Home > North America > United States > Guam
Elevation: 110 meters     Latitude: 13 33N     Longitude: 144 50E

WEATHER
 
SELECT A DAY
Number of Records: 215,673;   Date Range: 1/1/95 - 12/23/14
 
SHARE

PRINT THIS DATA

[ ← Previous Day ]
WEATHER ALMANAC - 25 AUGUST, 2014
[ Next Day → ]
[ °F ]   °C
Weather ElementAverageHighLow
Temperature26.8 °C30 °C (12:50 pm)23.9 °C (11:54 am)
Dewpoint24.7 °C26 °C (12:47 pm)22.2 °C (10:54 am)
Humidity88.2 %100 % (6:39 am)70 % (12:50 pm)
Barometer1010.2 hPa1012.5 hPa (12:08 am)1007.8 hPa (2:54 am)
Wind Speed10.5 km/h20.4 km/h (8:54 am)
Wind Gust29.6 km/h (2:54 pm)
Weather ElementAverage
Visibility14.6 km
Wind DirectionENE (67.9 °)

Weather ElementTotal
Precipitation41.15 mm
Cooling Degree Days8.6 (Base 18.3)
Growing Degree Days16.9 (Base 10)
Averaged from 33 records on 25 August, 2014
WEATHER CONDITIONS BREAKOUT
WIND DIRECTION BREAKOUT
WEATHER BY HOUR - 25 AUGUST, 2014
[ °F ]   °C
Local TimeTemperatureDewpointHumidityBarometerVisibilityWind DirectionWind SpeedGust SpeedPrecipitationEventsConditions
12:54 AM27.2 °C25 °C88 %1011.2 hPa8 kmNorth (360°)5.6 km/h0.51 mmRainHeavy Rain
1:54 AM26.7 °C24.4 °C87 %1010.8 hPa16.1 kmNorth0.25 mmPartly Cloudy
2:54 AM27.2 °C25.6 °C91 %1010.2 hPa16.1 kmNorthMostly Cloudy
3:54 AM26.1 °C24.4 °C90 %1010.2 hPa16.1 kmNorth3.56 mmOvercast
4:54 AM26.1 °C25 °C94 %1009.5 hPa16.1 kmCalmClear
5:26 AM26 °C25 °C94 %1010.5 hPa16.1 kmCalmScattered Clouds
5:54 AM26.1 °C25 °C94 %1010.2 hPa16.1 kmCalmClear
6:39 AM26 °C26 °C100 %1011.2 hPa16.1 kmCalmThunderstormThunderstorm
6:54 AM26.1 °C25 °C94 %1011.2 hPa16.1 kmCalmThunderstormThunderstorm
7:18 AM26 °C24 °C89 %1012.2 hPa16.1 kmNNE (20°)7.4 km/h0 mmRain-ThunderstormLight Thunderstorms and Rain
7:30 AM24 °C23 °C94 %1012.5 hPa4 kmNNE (20°)20.4 km/h29.6 km/h2.03 mmRain-ThunderstormHeavy Thunderstorms and Rain
7:33 AM24 °C23 °C94 %1012.2 hPa2.4 kmNNE (20°)20.4 km/h29.6 km/h4.57 mmRain-ThunderstormHeavy Thunderstorms and Rain
7:42 AM24 °C23 °C94 %1012.5 hPa4.8 kmNNE (20°)20.4 km/h29.6 km/h9.4 mmRain-ThunderstormHeavy Thunderstorms and Rain
7:48 AM24 °C23 °C94 %1012.5 hPa14.5 kmNNE (20°)20.4 km/h29.6 km/h9.65 mmRainLight Rain
7:49 AM23.9 °C23.3 °C96 %1011.9 hPa16.1 kmNNE (20°)20.4 km/h29.6 km/h9.65 mmRainLight Rain
8:54 AM25 °C22.2 °C84 %1010.5 hPa16.1 kmNNE (30°)18.5 km/h0 mmMostly Cloudy
9:54 AM27.8 °C23.9 °C79 %1011.2 hPa16.1 kmCalmScattered Clouds
10:54 AM28.9 °C25 °C79 %1010.8 hPa16.1 kmEast (100°)11.1 km/hScattered Clouds
11:54 AM28.9 °C25.6 °C82 %1010.2 hPa16.1 kmNorth (350°)14.8 km/h0 mmScattered Clouds
12:54 PM28.3 °C25.6 °C85 %1008.8 hPa16.1 kmNorth (350°)5.6 km/h0 mmRainLight Rain
1:47 PM29 °C26 °C84 %1009.1 hPa16.1 kmCalm0 mmMostly Cloudy
1:54 PM29.4 °C25.6 °C80 %1008.1 hPa16.1 kmESE (110°)7.4 km/h0 mmMostly Cloudy
2:24 PM30 °C24 °C70 %1009.1 hPa16.1 kmENE (70°)16.7 km/hMostly Cloudy
2:54 PM29.4 °C25 °C77 %1008.5 hPa16.1 kmEast (80°)13 km/hMostly Cloudy
3:54 PM27.8 °C25.6 °C88 %1009.1 hPa16.1 kmNE (40°)16.7 km/h0.25 mmRainLight Rain
4:54 PM27.2 °C25.6 °C91 %1007.8 hPa16.1 kmSE (130°)5.6 km/h0.76 mmRainLight Rain
5:54 PM27.2 °C25 °C88 %1008.5 hPa16.1 kmEast (90°)14.8 km/h0.25 mmPartly Cloudy
6:54 PM26.7 °C25 °C90 %1008.5 hPa16.1 kmNNE (30°)7.4 km/hPartly Cloudy
7:54 PM27.2 °C25 °C88 %1010.2 hPa16.1 kmEast (80°)14.8 km/hPartly Cloudy
8:54 PM27.8 °C25 °C85 %1010.2 hPa16.1 kmEast (80°)14.8 km/hPartly Cloudy
9:54 PM27.2 °C25 °C88 %1010.2 hPa16.1 kmNE (50°)7.4 km/hPartly Cloudy
10:54 PM27.2 °C25 °C88 %1010.8 hPa16.1 kmEast (80°)18.5 km/h0.25 mmPartly Cloudy
11:54 PM26.8 °C25 °C90 %1010.2 hPa16.1 kmEast (90°)9.3 km/hPartly Cloudy
Hourly data recorded from PGUM, located 0 kilometers away from Agat, Guam







STORIES FROM OUR PARTNERS